カタログに戻る

BREEZE-M DEB

LostHEO
NORAD 38605·DEBRIS·🇷🇺 Russia

打ち上げ Mar 14, 2008 から Baikonur Cosmodrome

Loading…

次のパス (今後24時間)

TLE

古いSource: Space-Track

元期: Mar 22, 2016, 19:01 UTC

1 38605U 08011BC  16082.79245447 -.00006854  00000-0 -22518+0 0  9993
2 38605  49.1320 223.5179 6384388 171.1367 356.3974  3.07032609 56860

AllMySatでBREEZE-M DEBをリアルタイム追跡

Download on the App Store